Tracking 18624 objects as of 26-April-2017
HD Live streaming from Space Station
objects crossing your sky now

VANGUARD R/B

Track VANGUARD R/B now!
10-day predictions


NORAD ID: 16
Int'l Code: 1958-002A
Perigee: 27,301.9 km
Apogee: 44,438.3 km
Inclination: 34.3 °
Period: 1,440.0 minutes
Semi major axis: 42241 km
RCS: 0.2285 m2 (medium)
Launch date: March 17, 1958
Source: United States (US)
Launch site: AIR FORCE EASTERN TEST RANGE (AFETR)

Note: This is a ROCKET BODY
Your satellite tracking list
Your tracking list is empty





NASA's NSSDC Master Catalog

Two Line Element Set (TLE):
1    16U 58002A   17114.65238502 -.00000153 +00000-0 -18101-3 0  9992
2    16 034.2622 234.4152 2028394 069.9320 310.7367 10.48645862338124
Source of the keplerian elements: AFSPC